Back to catalog

STARLINK-32846

AliveCommunicationsVLEO
NORAD 62867·PAYLOAD·🇺🇸 United States

Launched Feb 1, 2025 from Vandenberg Space Force Base

Loading…

Next Passes (next 24 hours)

TLE

FreshSource: CelesTrak SupGP

Epoch: Sep 14, 2026, 20:42 UTC

1 62867C 25022P   26257.86298611 -.00015080  00000+0 -44576-3 0  2574
2 62867  53.1597 327.9689 0001125  83.6813 322.5430 15.34382174    11

Track STARLINK-32846 in real time with AllMySat

Download on the App Store